GW1622 Weather Reports


Display with metric or nautical units.
time (UTC)temp
F
wind
direction
speed
MPH
gust
MPH
rain 1hr
in
rain 24hr
in
rain mn
in
humidity
%
barometer
mb
20260831080100 69 0 0.0 0.0 0.00 0.00 0.00 90 1013.2
20260831075520 69 0 0.0 0.0 0.00 0.00 0.00 90 1013.2
20260831075019 69 0 0.0 0.0 0.00 0.00 0.00 90 1013.1
20260831074542 69 0 0.0 1.0 0.00 0.00 0.00 90 1013.1
20260831074024 69 0 0.0 1.0 0.00 0.00 0.00 90 1013.1
20260831073520 69 0 0.0 0.0 0.00 0.00 0.00 90 1013.2
20260831073108 69 0 0.0 1.0 0.00 0.00 0.00 90 1013.1
20260831072518 69 0 0.0 1.0 0.00 0.00 0.00 90 1013.2
20260831072025 70 0 0.0 2.0 0.00 0.00 0.00 90 1013.3
20260831071551 70 0 0.0 2.0 0.00 0.00 0.00 90 1013.3
20260831071025 70 126 0.0 2.0 0.00 0.00 0.00 91 1013.2
20260831070522 69 0 0.0 1.0 0.00 0.00 0.00 90 1013.2
20260831070042 69 0 0.0 1.0 0.00 0.00 0.00 90 1013.2
20260831065520 70 0 0.0 1.0 0.00 0.00 0.00 90 1013.2
20260831065020 69 0 0.0 1.0 0.00 0.00 0.00 91 1013.3
20260831064545 69 0 0.0 1.0 0.00 0.00 0.00 90 1013.1
20260831064020 69 0 0.0 1.0 0.00 0.00 0.00 90 1013.1
20260831063518 69 0 0.0 1.0 0.00 0.00 0.00 90 1013.1
20260831063044 69 0 0.0 0.0 0.00 0.00 0.00 90 1013.0
20260831062519 69 0 0.0 1.0 0.00 0.00 0.00 90 1013.1
20260831062023 69 0 0.0 1.0 0.00 0.00 0.00 90 1013.1
20260831061543 69 0 0.0 2.0 0.00 0.00 0.00 90 1013.1
20260831061024 69 125 0.0 2.0 0.00 0.00 0.00 90 1013.0
20260831060522 69 0 0.0 2.0 0.00 0.00 0.00 90 1013.0
20260831060049 69 0 0.0 0.0 0.00 0.00 0.00 90 1013.0
20260831055517 69 0 0.0 0.0 0.00 0.00 0.00 90 1013.0
20260831055023 69 0 0.0 0.0 0.00 0.00 0.00 90 1013.1
20260831054548 69 0 0.0 0.0 0.00 0.00 0.00 89 1013.1
20260831054025 69 0 0.0 0.0 0.00 0.00 0.00 89 1013.1
20260831053519 69 0 0.0 0.0 0.00 0.00 0.00 90 1013.1
20260831053045 69 0 0.0 0.0 0.00 0.00 0.00 89 1013.1
20260831052518 69 0 0.0 0.0 0.00 0.00 0.00 89 1013.1
20260831052019 69 0 0.0 0.0 0.00 0.00 0.00 89 1013.0
20260831051542 69 0 0.0 0.0 0.00 0.00 0.00 89 1013.1
20260831051018 69 0 0.0 1.0 0.00 0.00 0.00 89 1013.0
20260831050521 69 0 0.0 1.0 0.00 0.00 0.00 89 1013.0
20260831050045 69 0 0.0 1.0 0.00 0.00 0.00 89 1013.2
20260831045520 69 0 0.0 0.0 0.00 0.00 0.00 89 1013.0
20260831045020 70 0 0.0 0.0 0.00 0.00 0.00 89 1012.9
20260831044552 70 0 0.0 1.0 0.00 0.00 0.00 89 1012.8
20260831044020 69 0 0.0 1.0 0.00 0.00 0.00 89 1012.9
20260831043523 70 0 0.0 0.0 0.00 0.00 0.00 88 1012.9
20260831043042 70 0 0.0 0.0 0.00 0.00 0.00 89 1012.9
20260831042518 70 0 0.0 1.0 0.00 0.00 0.00 89 1012.7
20260831042017 70 0 0.0 1.0 0.00 0.00 0.00 89 1012.7
20260831041552 70 0 0.0 1.0 0.00 0.00 0.00 88 1012.7
20260831041026 70 0 0.0 1.0 0.00 0.00 0.00 88 1012.5
20260831040522 70 0 0.0 1.0 0.00 0.00 0.00 88 1012.3
20260831040044 71 0 0.0 0.0 0.00 0.00 0.00 88 1012.4
20260831035519 71 0 0.0 0.0 0.00 0.00 0.00 88 1012.5
20260831035018 71 0 0.0 0.0 0.00 0.00 0.00 88 1012.5
20260831034541 71 0 0.0 0.0 0.00 0.00 0.00 88 1012.4
20260831034018 71 0 0.0 1.0 0.00 0.00 0.00 88 1012.3
20260831033520 71 0 0.0 1.0 0.00 0.00 0.00 88 1012.1
20260831033044 71 0 0.0 1.0 0.00 0.00 0.00 88 1012.2
20260831032520 71 0 0.0 1.0 0.00 0.00 0.00 87 1012.1
20260831032019 71 0 0.0 1.0 0.00 0.00 0.00 87 1012.1
20260831031540 71 0 0.0 1.0 0.00 0.00 0.00 87 1011.8
20260831031024 71 0 0.0 1.0 0.00 0.00 0.00 87 1011.8
20260831030521 71 0 0.0 0.0 0.00 0.00 0.00 87 1011.8
20260831030042 71 0 0.0 0.0 0.00 0.00 0.00 87 1011.7
20260831025518 71 0 0.0 2.0 0.00 0.00 0.00 87 1011.7
20260831025026 72 0 0.0 2.0 0.00 0.00 0.00 87 1011.7
20260831024541 72 0 0.0 1.0 0.00 0.00 0.00 87 1011.8
20260831024018 72 0 0.0 1.0 0.00 0.00 0.00 86 1011.8
20260831023517 72 0 0.0 1.0 0.00 0.00 0.00 86 1011.9
20260831023039 72 0 0.0 1.0 0.00 0.00 0.00 87 1011.9
20260831022518 72 0 0.0 1.0 0.00 0.00 0.00 86 1011.8
20260831022020 72 0 0.0 1.0 0.00 0.00 0.00 86 1011.8
20260831021547 72 0 0.0 2.0 0.00 0.00 0.00 86 1011.6
20260831021020 72 0 0.0 3.0 0.00 0.00 0.00 86 1011.7
20260831020518 73 0 0.0 3.0 0.00 0.00 0.00 86 1011.7
20260831020041 73 130 0.0 2.0 0.00 0.00 0.00 86 1011.7
20260831015520 73 0 0.0 2.0 0.00 0.00 0.00 86 1011.6
20260831015027 73 0 0.0 2.0 0.00 0.00 0.00 86 1011.5
20260831014543 73 0 0.0 2.0 0.00 0.00 0.00 86 1011.5
20260831014022 73 0 0.0 2.0 0.00 0.00 0.00 86 1011.5
20260831013521 73 0 0.0 4.0 0.00 0.00 0.00 85 1011.5
20260831013050 73 0 0.0 4.0 0.00 0.00 0.00 85 1011.5
20260831012520 73 0 1.0 4.0 0.00 0.00 0.00 85 1011.5
20260831012019 73 0 0.0 3.0 0.00 0.00 0.00 85 1011.5
20260831011545 73 0 0.0 4.0 0.00 0.00 0.00 85 1011.5
20260831011019 74 0 0.0 4.0 0.00 0.00 0.00 85 1011.6
20260831010519 74 113 1.0 4.0 0.00 0.00 0.00 85 1011.6
20260831010053 74 86 0.0 3.0 0.00 0.00 0.00 84 1011.6
20260831005519 74 105 0.0 4.0 0.00 0.00 0.00 84 1011.6
20260831005027 74 146 0.0 5.0 0.00 0.00 0.00 84 1011.6
20260831004543 74 155 1.0 5.0 0.00 0.00 0.00 84 1011.6
20260831004019 74 126 1.0 7.0 0.00 0.00 0.00 84 1011.7
20260831003519 74 0 2.0 7.0 0.00 0.00 0.00 83 1011.7
20260831003045 74 159 1.0 4.0 0.00 0.00 0.00 83 1011.6
20260831002518 75 66 1.0 4.0 0.00 0.00 0.00 83 1011.6
20260831002018 75 0 1.0 4.0 0.00 0.00 0.00 83 1011.6
20260831001541 75 141 1.0 4.0 0.00 0.00 0.00 82 1011.6
20260831001019 75 51 1.0 3.0 0.00 0.00 0.00 82 1011.7
20260831000520 75 117 1.0 4.0 0.00 0.00 0.00 82 1011.7
20260831000040 75 221 0.0 6.0 0.00 0.00 0.00 82 1011.6
20260830235521 75 75 1.0 6.0 0.00 0.00 0.00 82 1011.7
20260830235018 76 0 0.0 7.0 0.00 0.00 0.00 81 1011.6
20260830234546 75 119 2.0 7.0 0.00 0.00 0.00 80 1011.6
20260830234019 76 130 2.0 4.0 0.00 0.00 0.00 80 1011.6
20260830233524 76 96 2.0 6.0 0.00 0.00 0.00 80 1011.6
20260830233041 76 349 2.0 6.0 0.00 0.00 0.00 79 1011.8
20260830232519 77 38 1.0 6.0 0.00 0.00 0.00 78 1011.6
20260830232017 78 0 0.0 8.0 0.00 0.00 0.00 78 1011.7
20260830231540 77 111 1.0 8.0 0.00 0.00 0.00 80 1011.8
20260830231020 77 348 1.0 5.0 0.00 0.00 0.00 80 1011.8
20260830230521 77 334 1.0 6.0 0.00 0.00 0.00 79 1011.9
20260830230042 76 191 1.0 6.0 0.00 0.00 0.00 80 1011.9
20260830225521 76 352 1.0 7.0 0.00 0.00 0.00 79 1012.0
20260830225020 77 0 1.0 7.0 0.00 0.00 0.00 78 1012.0
20260830224543 78 153 1.0 6.0 0.00 0.00 0.00 78 1011.9
20260830224018 78 28 1.0 9.0 0.00 0.00 0.00 78 1012.0
20260830223518 78 0 1.0 9.0 0.00 0.00 0.00 78 1012.0
20260830223042 78 67 3.0 9.0 0.00 0.00 0.00 76 1012.1
20260830222517 78 70 2.0 8.0 0.00 0.00 0.00 77 1012.2
20260830222021 79 119 1.0 7.0 0.00 0.00 0.00 75 1012.1
20260830221536 78 0 2.0 5.0 0.00 0.00 0.00 77 1012.2
20260830221018 79 0 1.0 5.0 0.00 0.00 0.00 76 1012.0
20260830220518 80 288 1.0 5.0 0.00 0.00 0.00 75 1012.1
20260830220045 79 88 2.0 6.0 0.00 0.00 0.00 75 1012.3
20260830215518 80 94 1.0 8.0 0.00 0.00 0.00 75 1012.2
20260830215018 78 19 2.0 9.0 0.00 0.00 0.00 77 1012.2
20260830214540 78 90 3.0 9.0 0.00 0.00 0.00 76 1012.2
20260830214017 79 103 1.0 6.0 0.00 0.00 0.00 77 1012.3
20260830213520 79 65 1.0 6.0 0.00 0.00 0.00 75 1012.3
20260830213041 80 12 2.0 6.0 0.00 0.00 0.00 74 1012.4
20260830212519 79 53 1.0 7.0 0.00 0.00 0.00 75 1012.5
20260830212020 79 51 2.0 7.0 0.00 0.00 0.00 76 1012.6
20260830211542 80 65 2.0 6.0 0.00 0.00 0.00 75 1012.8
20260830211021 79 96 2.0 7.0 0.00 0.00 0.00 75 1012.8
20260830210517 80 119 2.0 7.0 0.00 0.00 0.00 75 1012.7
20260830210041 79 186 1.0 7.0 0.00 0.00 0.00 75 1012.9
20260830205519 79 61 2.0 7.0 0.00 0.00 0.00 75 1013.0
20260830205019 79 135 2.0 6.0 0.00 0.00 0.00 76 1012.9
20260830204539 79 92 2.0 7.0 0.00 0.00 0.00 75 1012.9
20260830204018 80 74 1.0 10.0 0.00 0.00 0.00 75 1012.9
20260830203519 79 148 2.0 10.0 0.00 0.00 0.00 76 1013.0
20260830203039 80 81 2.0 6.0 0.00 0.00 0.00 74 1012.9
20260830202518 80 86 1.0 6.0 0.00 0.00 0.00 76 1012.9
20260830202018 80 94 1.0 7.0 0.00 0.00 0.00 76 1012.9
20260830201543 80 139 2.0 8.0 0.00 0.00 0.00 76 1012.9
20260830201022 79 117 1.0 8.0 0.00 0.00 0.00 76 1013.1
20260830200525 79 126 3.0 8.0 0.00 0.00 0.00 76 1013.0
20260830200038 79 134 2.0 8.0 0.00 0.00 0.00 76 1013.0
20260830195518 79 142 3.0 8.0 0.00 0.00 0.00 77 1012.9
20260830195017 79 117 3.0 8.0 0.00 0.00 0.00 76 1013.0
20260830194547 79 71 2.0 7.0 0.00 0.00 0.00 76 1013.0
20260830194024 79 111 2.0 7.0 0.00 0.00 0.00 77 1013.0
20260830193518 79 134 3.0 7.0 0.00 0.00 0.00 76 1013.1
20260830193043 79 196 3.0 9.0 0.00 0.00 0.00 76 1013.1
20260830192520 79 115 1.0 9.0 0.00 0.00 0.00 77 1013.1
20260830192020 79 63 3.0 8.0 0.00 0.00 0.00 77 1013.2
20260830191541 79 113 3.0 7.0 0.00 0.00 0.00 76 1013.3
20260830191020 80 104 2.0 8.0 0.00 0.00 0.00 76 1013.3
20260830190521 79 120 3.0 8.0 0.00 0.00 0.00 77 1013.3
20260830190041 79 97 2.0 8.0 0.00 0.00 0.00 77 1013.4
20260830185521 79 117 2.0 8.0 0.00 0.00 0.00 77 1013.4
20260830185021 79 127 2.0 8.0 0.00 0.00 0.00 77 1013.5
20260830184541 79 124 3.0 7.0 0.00 0.00 0.00 77 1013.6
20260830184018 79 107 3.0 7.0 0.00 0.00 0.00 77 1013.6
20260830183520 79 125 2.0 8.0 0.00 0.00 0.00 77 1013.5
20260830183040 78 148 2.0 8.0 0.00 0.00 0.00 78 1013.4
20260830182518 79 138 2.0 6.0 0.00 0.00 0.00 77 1013.5
20260830182021 79 31 1.0 7.0 0.00 0.00 0.00 79 1013.5
20260830181540 78 81 2.0 9.0 0.00 0.00 0.00 79 1013.6
20260830181019 78 164 3.0 9.0 0.00 0.00 0.00 79 1013.6
20260830180519 78 76 2.0 7.0 0.00 0.00 0.00 79 1013.8
20260830180039 78 106 2.0 8.0 0.00 0.00 0.00 79 1013.6
20260830175518 78 186 1.0 8.0 0.00 0.00 0.00 79 1013.7
20260830175020 77 207 2.0 7.0 0.00 0.00 0.00 80 1013.5
20260830174601 77 116 3.0 7.0 0.00 0.00 0.00 80 1013.5
20260830174020 77 78 2.0 7.0 0.00 0.00 0.00 80 1013.5
20260830173522 77 128 3.0 6.0 0.00 0.00 0.00 80 1013.4
20260830173042 77 146 2.0 6.0 0.00 0.00 0.00 80 1013.4
20260830172522 78 153 2.0 8.0 0.00 0.00 0.00 79 1013.4
20260830172019 77 157 3.0 8.0 0.00 0.00 0.00 80 1013.4
20260830171544 77 90 2.0 8.0 0.00 0.00 0.00 80 1013.3
20260830171019 77 142 2.0 8.0 0.00 0.00 0.00 81 1013.1
20260830170524 77 136 2.0 5.0 0.00 0.00 0.00 80 1013.1
20260830170039 77 0 2.0 5.0 0.00 0.00 0.00 80 1013.1
20260830165520 77 190 1.0 4.0 0.00 0.00 0.00 79 1013.0
20260830165017 77 84 1.0 4.0 0.00 0.00 0.00 80 1013.1
20260830164536 77 101 1.0 4.0 0.00 0.00 0.00 80 1013.1
20260830164023 76 67 1.0 4.0 0.00 0.00 0.00 81 1013.0
20260830163520 76 36 1.0 5.0 0.00 0.00 0.00 81 1013.0
20260830163053 76 132 2.0 7.0 0.00 0.00 0.00 81 1013.1
20260830162517 76 113 1.0 7.0 0.00 0.00 0.00 81 1013.0
20260830162020 76 112 1.0 5.0 0.00 0.00 0.00 80 1013.0
20260830161550 76 24 1.0 4.0 0.00 0.00 0.00 81 1013.1
20260830161021 76 67 1.0 4.0 0.00 0.00 0.00 80 1012.9
20260830160524 76 17 2.0 4.0 0.00 0.00 0.00 80 1012.9
20260830160041 76 152 0.0 3.0 0.00 0.00 0.00 82 1012.9
20260830155524 75 360 1.0 4.0 0.00 0.00 0.00 82 1013.0
20260830155022 75 0 1.0 4.0 0.00 0.00 0.00 83 1012.9
20260830154542 74 0 0.0 3.0 0.00 0.00 0.00 83 1012.9
20260830154017 74 172 0.0 3.0 0.00 0.00 0.00 84 1012.8
20260830153519 73 159 0.0 3.0 0.00 0.00 0.00 84 1012.9
20260830153042 73 88 0.0 3.0 0.00 0.00 0.00 85 1012.8
20260830152520 73 279 0.0 3.0 0.00 0.00 0.00 86 1012.8
20260830152021 73 0 1.0 3.0 0.00 0.00 0.00 86 1012.7
20260830151546 73 119 1.0 3.0 0.00 0.00 0.00 86 1012.7
20260830151018 73 132 0.0 3.0 0.00 0.00 0.00 86 1012.7
20260830150518 72 0 0.0 3.0 0.00 0.00 0.00 86 1013.1
20260830150036 72 0 0.0 3.0 0.00 0.00 0.00 87 1012.9
20260830145524 72 0 0.0 3.0 0.00 0.00 0.00 87 1012.9
20260830145024 72 173 0.0 3.0 0.00 0.00 0.00 87 1013.0
20260830144541 72 107 1.0 4.0 0.00 0.00 0.00 87 1012.9
20260830144020 72 127 1.0 4.0 0.00 0.00 0.00 87 1012.9
20260830143516 72 162 1.0 4.0 0.00 0.00 0.00 87 1012.8
20260830143041 72 166 0.0 3.0 0.00 0.00 0.00 88 1012.8
20260830142518 72 0 0.0 3.0 0.00 0.00 0.00 88 1012.8
20260830142023 72 169 0.0 3.0 0.00 0.00 0.00 88 1012.9
20260830141536 71 0 0.0 2.0 0.00 0.00 0.00 88 1012.8
20260830141020 71 0 0.0 2.0 0.00 0.00 0.00 89 1012.7
20260830140520 71 0 0.0 4.0 0.00 0.00 0.00 89 1012.7
20260830140058 71 0 0.0 4.0 0.00 0.00 0.00 89 1012.7
20260830135523 71 0 1.0 3.0 0.00 0.00 0.00 89 1012.6
20260830135022 71 0 0.0 3.0 0.00 0.00 0.00 89 1012.8
20260830134539 71 0 0.0 2.0 0.00 0.00 0.00 89 1012.6
20260830134018 71 184 0.0 2.0 0.00 0.00 0.00 89 1012.5
20260830133518 71 0 0.0 3.0 0.00 0.00 0.00 89 1012.4
20260830133046 71 0 0.0 3.0 0.00 0.00 0.00 90 1012.3
20260830132517 71 0 0.0 1.0 0.00 0.00 0.00 90 1012.2
20260830132021 71 0 0.0 0.0 0.00 0.00 0.00 90 1012.1
20260830131543 71 0 0.0 1.0 0.00 0.00 0.00 90 1012.2
20260830131017 71 0 0.0 1.0 0.00 0.00 0.00 90 1012.2
20260830130521 71 0 0.0 1.0 0.00 0.00 0.00 90 1012.1
20260830130052 71 0 0.0 0.0 0.00 0.00 0.00 90 1012.2
20260830125522 71 0 0.0 0.0 0.00 0.00 0.00 90 1012.1
20260830125017 71 0 0.0 2.0 0.00 0.00 0.00 90 1012.1
20260830124544 71 0 0.0 2.0 0.00 0.00 0.00 90 1012.1
20260830124017 71 0 0.0 0.0 0.00 0.00 0.00 90 1011.9
20260830123517 71 0 0.0 0.0 0.00 0.00 0.00 90 1011.9
20260830123038 71 0 0.0 0.0 0.00 0.00 0.00 90 1011.9
20260830122519 71 0 0.0 0.0 0.00 0.00 0.00 90 1012.0
20260830122022 71 0 0.0 0.0 0.00 0.00 0.00 91 1012.0
20260830121539 71 0 0.0 0.0 0.00 0.00 0.00 90 1011.9
20260830121021 72 0 0.0 0.0 0.00 0.00 0.00 91 1011.9
20260830120522 72 0 0.0 0.0 0.00 0.00 0.00 91 1011.9
20260830120039 72 0 0.0 1.0 0.00 0.00 0.00 91 1011.9
20260830115518 72 0 0.0 1.0 0.00 0.00 0.00 91 1012.0
20260830115021 72 0 0.0 1.0 0.00 0.00 0.00 91 1011.9
20260830114537 72 0 0.0 1.0 0.00 0.00 0.00 91 1012.0
20260830114019 71 0 0.0 1.0 0.00 0.00 0.00 91 1011.8
20260830113520 71 0 0.0 2.0 0.00 0.00 0.00 91 1012.0
20260830113043 71 0 0.0 2.0 0.00 0.00 0.00 92 1011.9
20260830112519 71 0 0.0 1.0 0.00 0.00 0.00 92 1011.9
20260830112021 71 0 0.0 1.0 0.00 0.00 0.00 92 1011.9
20260830111538 71 0 0.0 1.0 0.00 0.00 0.00 92 1011.9
20260830111020 71 0 0.0 1.0 0.00 0.00 0.00 92 1011.8
20260830110518 71 0 0.0 0.0 0.00 0.00 0.00 92 1011.8
20260830110045 71 0 0.0 0.0 0.00 0.00 0.00 92 1012.0
20260830105520 71 0 0.0 1.0 0.00 0.00 0.00 92 1011.9
20260830105018 71 0 0.0 1.0 0.00 0.00 0.00 92 1011.9
20260830104540 71 0 0.0 3.0 0.00 0.00 0.00 92 1012.0
20260830104019 71 0 0.0 3.0 0.00 0.00 0.00 92 1011.9
20260830103521 71 0 0.0 3.0 0.00 0.00 0.00 92 1011.8
20260830103042 71 175 1.0 2.0 0.00 0.00 0.00 92 1011.9
20260830102518 71 0 0.0 0.0 0.00 0.00 0.00 92 1011.8
20260830102019 71 0 0.0 0.0 0.00 0.00 0.00 92 1011.8
20260830101550 71 0 0.0 0.0 0.00 0.00 0.00 92 1011.8
20260830101020 71 0 0.0 2.0 0.00 0.00 0.00 92 1011.8
20260830100517 71 0 0.0 2.0 0.00 0.00 0.00 92 1011.7
20260830100036 71 0 0.0 2.0 0.00 0.00 0.00 92 1011.7
20260830095517 71 0 0.0 2.0 0.00 0.00 0.00 92 1011.7
20260830095018 71 0 0.0 4.0 0.00 0.00 0.00 92 1011.5
20260830094541 71 0 0.0 4.0 0.00 0.00 0.00 92 1011.7
20260830094017 71 0 0.0 2.0 0.00 0.00 0.00 92 1011.6
20260830093521 71 0 0.0 2.0 0.00 0.00 0.00 92 1011.7
20260830093036 71 0 0.0 1.0 0.00 0.00 0.00 92 1011.7
20260830092523 71 113 0.0 1.0 0.00 0.00 0.00 92 1011.7
20260830092020 71 0 0.0 2.0 0.00 0.00 0.00 92 1011.8
20260830091539 71 0 0.0 2.0 0.00 0.00 0.00 92 1011.7
20260830091020 71 0 0.0 0.0 0.00 0.00 0.00 92 1011.7
20260830090520 71 0 0.0 0.0 0.00 0.00 0.00 92 1011.8
20260830090037 71 0 0.0 0.0 0.00 0.00 0.00 92 1011.7
20260830085521 71 0 0.0 0.0 0.00 0.00 0.00 92 1011.7
20260830085020 71 0 0.0 0.0 0.00 0.00 0.00 92 1011.7
20260830084541 71 0 0.0 0.0 0.00 0.00 0.00 92 1011.7
20260830084021 71 0 0.0 0.0 0.00 0.00 0.00 92 1011.6
20260830083520 71 0 0.0 0.0 0.00 0.00 0.00 92 1011.6
20260830083048 71 0 0.0 0.0 0.00 0.00 0.00 92 1011.8
20260830082517 71 0 0.0 0.0 0.00 0.00 0.00 91 1011.7
20260830082021 72 0 0.0 1.0 0.00 0.00 0.00 92 1011.8
20260830081539 72 0 0.0 2.0 0.00 0.00 0.00 92 1011.7
20260830081018 72 0 0.0 2.0 0.00 0.00 0.00 92 1011.9
20260830080519 72 0 0.0 1.0 0.00 0.00 0.00 92 1011.9